Regional Weather Roundup
Issued by NWS

Home | Current Version | Previous Version | Graphics & Text | Print | Product List | Glossary On
Versions: 1 2 3 4 5 6 7 8 9 10 11 12 13 14 15 16 17 18 19 20 21 22 23 24 25 26 27 28 29 30 31 32 33 34 35 36 37 38 39 40 41 42 43 44 45 46 47 48 49 50
573
ASUS44 KJAN 262010
RWRMS

MISSISSIPPI HOURLY WEATHER ROUNDUP
NATIONAL WEATHER SERVICE JACKSON MS
300 PM CDT TUE AUG 26 2014

NOTE: "FAIR: INDICATES FEW OR NO CLOUDS BELOW 12,000 FEET WITH NO
SIGNIFICANT WEATHER AND/OR OBSTRUCTIONS TO VISIBILITY.

MSZ001>002-007>008-010>013-018>021-025>028-034>036-262100-
NORTHWEST MISSISSIPPI

CITY           SKY/WX    TMP DP  RH WIND       PRES   REMARKS
CLARKSDALE     FAIR      90  70  51 E9        30.06F HX  95
CLEVELAND      FAIR      89  67  48 NE10      30.04F HX  93
GREENWOOD      SUNNY     90  63  40 NE10      30.04F HX  91
GREENVILLE     SUNNY     91  65  41 VRB7      30.03F HX  93
GRENADA        FAIR      88  63  42 E6        30.06F
OLIVE BRANCH   MOSUNNY   88  72  58 E6        30.07F HX  94
OXFORD         FAIR      86  63  45 N5        30.09F
TUNICA         CLEAR     90  70  51 NE6       30.06F HX  95
$$

MSZ003>006-009-014>017-022>024-029>033-037>039-262100-
NORTHEAST MISSISSIPPI

CITY           SKY/WX    TMP DP  RH WIND       PRES   REMARKS
BELMONT        CLOUDY    82  62  51 CALM      30.10F
COLUMBUS AFB   SUNNY     90  60  36 N8        30.05F
CORINTH        FAIR      86  66  51 VRB5      30.08F
GOLDN TRIANGLE MOSUNNY   91  59  33 CALM      30.05F HX  90
STARKVILLE     FAIR      90  55  31 E8G16     30.05F
TUPELO         PTSUNNY   85  62  46 SE3       30.08F
$$

MSZ040-058-262100-
CENTRAL MISSISSIPPI

CITY           SKY/WX    TMP DP  RH WIND       PRES   REMARKS
JACKSON INTL   SUNNY     90  59  35 NE13      30.02F
JACKSON HAWKNS SUNNY     90  61  37 NE9       30.03F HX  90
MERIDIAN KEY   SUNNY     91  56  30 E9G17     30.02F
MERIDIAN NAS   MOSUNNY   91  59  33 E9        30.03F HX  90
RAYMOND        FAIR      90  84  84 NE3       30.02F HX 115
VICKSBURG      SUNNY     92  60  34 E12       30.01F HX  91
$$

MSZ059>079-262100-
SOUTH MISSISSIPPI

CITY           SKY/WX    TMP DP  RH WIND       PRES   REMARKS
BROOKHAVEN     FAIR      88  63  42 NE7       30.04S
COLUMBIA       FAIR      88  66  48 MISG      29.99F HX  90
HATTIESBURG    MOSUNNY   92  61  35 NE10      30.00F HX  92
MCCOMB         MOSUNNY   89  61  38 NE7       30.01F
NATCHEZ        MOSUNNY   88  68  51 NE10      30.02S HX  91
PINE BELT      PTSUNNY   88  61  40 NE9       30.03S
$$

MSZ080>082-262100-
COASTAL MISSISSIPPI

CITY           SKY/WX    TMP DP  RH WIND       PRES   REMARKS
BAY ST LOUIS   MOSUNNY  N/A N/A N/A E7        29.98F
BILOXI         MOSUNNY   88  72  58 S13       29.98F HX  94
PASCAGOULA     MOSUNNY   90  67  46 NE7       29.97F HX  93
GULFPORT       MOSUNNY   88  71  57 SE12      29.97F HX  94
$$



USA.gov is the U.S. government's official web portal to all federal, state and local government web resources and services.